Location: Ffald-y-Brenin
(52.0833°N, 4.0000°W)
Time: 23:07:33
(UTC+00:00)

Cosmos 1190 Rocket - Pass Details

Date: 18 February 2020
Orbit: 756 x 780 km, 74.1° (Epoch: 05 April)

Event Time Altitude Azimuth Distance (km) Brightness Sun altitude
Rises 06:12:44 0° 207° (SSW) 3,233 7.0 -11.9°
Reaches altitude 10° 06:15:06 10° 209° (SSW) 2,313 6.2 -11.6°
Maximum altitude 06:20:22 78° 296° (WNW) 799 4.0 -10.8°
Drops below altitude 10° 06:25:42 10° 23° (NNE) 2,342 6.7 -9.9°
Sets 06:28:07 0° 25° (NNE) 3,276 7.5 -9.6°
